WORLDVIEW-1 (WV-1)

Last updated on Sun Jul 06 2025 00:02:28 GMT+0000 (Coordinated Universal Time)

1 32060U 07041A 25186.37219972 .00006038 00000+0 25129-3 0 9993 2 32060 97.3793 306.1714 0001488 37.6139 322.5202 15.24117514990097
UTC large
Height (km)
Speed (km/s)
/
Latitude / Longitude
Inclination (degrees)
Orbital Period (minutes)
Azimuth
Elevation
Range (km)
Doppler Factor

Next 0 passes for location: London (51.5072 / 0.1276)

Sorry there are no passes over London.